User: anonymous
Location: Caltech
(34.1382°N, 118.1253°W)
Time: 01:12:46
(UTC-07:00)
Language:

Cosmos 1937 Rocket - Orbit

View from above orbital plane
View from above orbital plane
View from above satellite
View from above satellite

Ground track
Ground track

The orbit data is extracted from the following two-line orbital elements,

1 19039U 88029B   14263.82099247  .00000180  00000-0  67827-4 0  1362
2 19039 074.0501 341.2828 0023396 039.7769 097.5639 14.38032757387033
Epoch (UTC): 20 September 2014 19:42:13
Eccentricity: 0.0023396
inclination: 74.0501°
perigee height: 748 km
apogee height: 782 km
right ascension of ascending node: 341.2828°
argument of perigee: 39.7769°
revolutions per day: 14.38032757
mean anomaly at epoch: 97.5639°
orbit number at epoch: 38703

The dashed part of the orbit path shows where the satellite is in the earth's shadow,  

DLR